Location: Unspecified
(40.7945°N, 0.0000°E)
Time: 23:46:57
(UTC+00:00)

TIGRISAT - Pass Details

Date: 28 August 2019
Orbit: 605 x 690 km, 97.7° (Epoch: 18 September)

Event Time Altitude Azimuth Distance (km) Brightness Sun altitude
Rises 20:14:37 0° 22° (NNE) 3,004 ? -17.5°
Reaches altitude 10° 20:17:05 10° 32° (NNE) 2,072 ? -18.0°
Enters shadow 20:20:36 31° 82° (E) 1,139 ? -18.5°
